Location: Al Mulaqqa?ah
(24.1833°N, 32.8833°E)
Time: 20:05:01
(UTC+00:00)

Cosmos 783 Rocket - Pass Details

Date: 26 September 2021
Orbit: 757 x 781 km, 74.1° (Epoch: 15 October)

Event Time Altitude Azimuth Distance (km) Brightness Sun altitude
Rises 16:50:53 0° 350° (N) 3,256 8.0 -16.8°
Reaches altitude 10° 16:53:18 10° 353° (N) 2,324 7.1 -17.4°
Maximum altitude 16:58:32 63° 74° (ENE) 861 4.4 -18.6°
Enters shadow 17:02:14 19° 151° (SSE) 1,756 6.0 -19.4°
